Waarnemingen

Advertentie
Mijn weer
Charleville, Frankrijk (7075): temperatuur & dauwpunt: 13.02.2020 22:00:00 - 19.02.2020 22:00:00 (CET)Charleville, Frankrijk (7075): temperatuur 5cm: 13.02.2020 22:00:00 - 19.02.2020 22:00:00 (CET)Charleville, Frankrijk (7075): temperatuur -20cm & temperatuur -100cm: 13.02.2020 22:00:00 - 19.02.2020 22:00:00 (CET)Charleville, Frankrijk (7075): windsnelheid & windstoten: 13.02.2020 22:00:00 - 19.02.2020 22:00:00 (CET)Charleville, Frankrijk (7075): windrichting: 13.02.2020 22:00:00 - 19.02.2020 22:00:00 (CET)Charleville, Frankrijk (7075): luchtdruk: 13.02.2020 22:00:00 - 19.02.2020 22:00:00 (CET)Charleville, Frankrijk (7075): zicht: 13.02.2020 22:00:00 - 19.02.2020 22:00:00 (CET)Charleville, Frankrijk (7075): Zonneschijnduur: 13.02.2020 22:00:00 - 19.02.2020 22:00:00 (CET)Charleville, Frankrijk (7075): neerslag: 13.02.2020 22:00:00 - 19.02.2020 22:00:00 (CET)
Datum & Tijd tt [°C] td [°C] tt 5cm [°C] tt -20cm [°C] tt -100cm [°C] ff [km/u] ff [kn] fx [km/u] fx [kn] dd ppp [hPa] vv [km] sd [min] rr [mm]
19.02.2020 22:00:00 5,7 4,3 4,8 7,4 8,1 8 4 18 10 ZZW 1024,0 8 0 0,4
19.02.2020 21:00:00 5,4 4,0 4,8 7,4 8,1 4 2 14 8 ZZO 1024,3 15 0 0,2
19.02.2020 20:00:00 5,7 4,0 5,0 7,4 8,1 9 5 23 12 ZW 1024,6 20 0 0,0
19.02.2020 19:00:00 6,0 3,5 5,2 7,3 8,1 8 4 26 14 WZW 1024,9 19 0 0,0
19.02.2020 18:00:00 7,0 2,3 6,4 7,3 8,1 16 9 32 18 WZW 1024,5 20 11 0,0
19.02.2020 17:00:00 7,5 1,3 7,6 7,2 8,1 9 5 25 14 ZW 1024,4 20 0 0,0
19.02.2020 16:00:00 7,5 0,7 8,2 7,2 8,1 16 9 36 19 W 1024,7 20 16 0,0
19.02.2020 15:00:00 8,0 0,7 8,6 7,1 8,1 20 11 41 22 W 1024,7 20 40 0,0
19.02.2020 14:00:00 7,4 0,8 8,6 7,0 8,1 18 10 43 23 W 1024,8 20 33 0,0
19.02.2020 13:00:00 7,6 1,2 8,4 7,0 8,0 23 12 37 20 WNW 1024,7 20 43 0,0
19.02.2020 12:00:00 6,8 1,7 7,6 7,0 8,0 21 11 34 19 WNW 1024,8 20 44 0,0
19.02.2020 11:00:00 5,9 1,8 5,8 7,1 8,0 21 12 39 21 WNW 1024,2 20 14 0,0
19.02.2020 10:00:00 4,9 2,1 4,0 7,1 8,0 21 11 35 19 WNW 1023,8 20 0 0,0
19.02.2020 09:00:00 4,8 2,0 3,2 7,2 8,0 21 11 33 18 W 1022,9 20 11 0,0
19.02.2020 08:00:00 4,4 2,4 3,4 7,2 8,0 16 9 39 21 W 1021,6 20 0 0,0
19.02.2020 07:00:00 4,7 2,7 3,3 7,3 8,0 17 9 44 24 W 1020,5 20 0 0,2
19.02.2020 06:00:00 5,4 3,1 4,4 7,3 8,0 26 14 44 24 W 1019,8 20 0 0,0
19.02.2020 05:00:00 5,2 3,5 4,1 7,4 8,0 19 10 32 18 W 1018,8 12 0 0,0
19.02.2020 04:00:00 4,6 3,1 3,4 7,5 8,0 13 7 26 14 W 1018,7 20 0 0,0
19.02.2020 03:00:00 4,1 2,9 3,4 7,5 8,0 11 6 59 32 W 1018,7 20 0 2,4
19.02.2020 02:00:00 6,8 4,6 5,7 7,5 8,0 32 17 73 39 ZW 1018,2 9 0 2,0
19.02.2020 01:00:00 6,9 4,7 5,7 7,6 8,0 20 11 36 20 ZZW 1019,1 13 0 0,4
19.02.2020 00:00:00 6,8 4,8 5,7 7,6 8,0 17 9 33 18 ZZW 1020,3 12 0 0,2
18.02.2020 23:00:00 6,9 4,2 5,7 7,6 8,0 15 8 30 16 ZZW 1021,3 20 0 0,2
18.02.2020 22:00:00 7,0 3,6 6,0 7,7 8,0 16 8 31 17 ZZW 1022,4 20 0 0,0
18.02.2020 21:00:00 6,7 3,5 5,1 7,7 8,0 12 7 24 13 ZZW 1023,2 20 0 0,0
18.02.2020 20:00:00 5,8 4,1 4,7 7,7 8,0 9 5 27 14 ZZW 1024,0 20 0 0,2
18.02.2020 19:00:00 6,3 4,0 4,9 7,7 8,0 7 4 34 18 ZW 1024,5 17 0 0,2
18.02.2020 18:00:00 7,5 3,9 6,2 7,7 8,0 13 7 36 19 WZW 1024,6 8 0 0,0
18.02.2020 17:00:00 7,9 3,5 6,8 7,6 8,0 16 9 37 20 ZW 1024,9 20 0 0,0
18.02.2020 16:00:00 8,1 3,4 7,5 7,5 8,0 15 8 36 19 WZW 1025,3 19 0 0,0
18.02.2020 15:00:00 8,4 3,2 8,8 7,5 8,0 19 10 39 21 ZW 1025,6 20 13 0,0
18.02.2020 14:00:00 8,8 3,8 9,2 7,5 8,0 21 11 37 20 ZW 1025,8 20 12 0,0
18.02.2020 13:00:00 7,9 3,0 8,9 7,4 8,0 21 12 39 21 ZW 1026,3 20 13 0,0
18.02.2020 12:00:00 7,2 3,2 8,5 7,5 8,0 19 10 36 20 WZW 1027,1 20 17 0,0
18.02.2020 11:00:00 6,1 2,9 6,8 7,5 7,9 18 10 40 21 WZW 1027,3 20 26 0,0
18.02.2020 10:00:00 5,4 2,9 5,4 7,6 8,0 16 9 35 19 WZW 1027,3 19 21 0,0
18.02.2020 09:00:00 4,6 2,5 3,9 7,6 8,0 14 8 33 18 ZW 1027,1 20 12 0,0
18.02.2020 08:00:00 4,3 2,3 3,7 7,7 7,9 18 10 37 20 ZW 1026,6 20 0 0,0
18.02.2020 07:00:00 4,6 2,3 4,0 7,7 7,9 17 9 33 18 ZW 1026,0 20 0 0,0
18.02.2020 06:00:00 5,2 2,4 4,9 7,8 8,0 17 9 35 19 ZW 1025,8 20 0 0,0
18.02.2020 05:00:00 5,5 2,7 5,4 7,9 7,9 18 10 32 17 ZW 1025,3 20 0 0,0
18.02.2020 04:00:00 5,7 2,7 5,5 7,9 7,9 16 8 36 19 ZW 1025,0 20 0 0,0
18.02.2020 03:00:00 6,0 2,6 5,8 8,0 7,9 17 9 34 18 ZW 1024,7 20 0 0,0
18.02.2020 02:00:00 6,3 2,9 6,1 8,0 7,9 19 10 40 21 WZW 1024,2 20 0 0,0
18.02.2020 01:00:00 6,6 3,2 6,2 8,1 7,9 18 10 39 21 ZW 1023,4 20 0 0,0
18.02.2020 00:00:00 6,7 3,1 5,9 8,2 7,9 18 10 32 18 ZW 1022,8 20 0 0,0
17.02.2020 23:00:00 6,6 3,0 5,5 8,2 7,9 15 8 35 19 WZW 1022,2 20 0 0,0
17.02.2020 22:00:00 7,3 3,0 6,3 8,3 7,9 18 10 37 20 WZW 1021,4 20 0 0,0
17.02.2020 21:00:00 7,9 3,2 6,8 8,4 7,9 19 10 36 19 W 1020,4 20 0 0,0
17.02.2020 20:00:00 8,0 3,3 7,0 8,4 7,9 22 12 55 30 W 1019,7 20 0 0,0
17.02.2020 19:00:00 9,3 2,6 8,2 8,4 7,9 16 9 34 19 ZW 1018,3 20 0 0,0
17.02.2020 18:00:00 9,4 3,4 7,9 8,4 7,9 14 8 36 20 WZW 1017,5 20 33 0,0
17.02.2020 17:00:00 10,1 4,9 8,6 8,3 7,9 14 7 34 19 ZW 1016,7 20 31 0,2
17.02.2020 16:00:00 9,1 4,7 7,5 8,2 7,9 14 8 40 22 WZW 1016,8 20 32 0,2
17.02.2020 15:00:00 8,3 5,4 8,0 8,1 7,9 25 13 68 37 W 1016,7 11 34 0,2
17.02.2020 14:00:00 10,7 4,8 11,1 8,1 7,9 25 13 53 29 ZW 1016,1 20 28 0,0
17.02.2020 13:00:00 10,5 5,0 12,0 8,0 7,9 26 14 48 26 ZW 1016,4 20 44 0,0
17.02.2020 12:00:00 9,4 6,1 8,6 8,1 7,9 14 8 33 18 ZW 1016,7 20 15 0,0
17.02.2020 11:00:00 8,1 4,9 8,2 8,1 7,9 16 9 31 17 ZZW 1016,6 20 0 0,0
17.02.2020 10:00:00 7,9 4,8 7,6 8,1 7,9 16 9 30 16 ZZW 1016,6 20 0 0,0
17.02.2020 09:00:00 7,6 5,7 6,9 8,2 7,9 15 8 29 15 ZZW 1016,3 20 0 0,0
17.02.2020 08:00:00 7,5 5,8 7,1 8,2 7,9 11 6 26 14 ZZW 1016,2 20 0 0,0
17.02.2020 07:00:00 7,8 5,8 7,4 8,3 7,9 9 5 26 14 WZW 1015,9 20 0 0,0
17.02.2020 06:00:00 7,9 6,0 7,4 8,4 7,9 14 8 29 15 ZZW 1016,4 20 0 0,0
17.02.2020 05:00:00 8,0 5,8 7,4 8,4 7,8 11 6 29 15 ZW 1016,2 20 0 0,0
17.02.2020 04:00:00 8,2 5,7 7,6 8,5 7,9 14 8 39 21 ZW 1015,5 20 0 0,0
17.02.2020 03:00:00 8,3 5,9 7,7 8,5 7,9 17 9 35 19 ZW 1015,4 20 0 0,0
17.02.2020 02:00:00 8,3 5,8 7,1 8,5 7,8 19 10 49 26 ZW 1014,5 20 0 0,0
17.02.2020 01:00:00 8,2 5,8 6,8 8,5 7,9 21 11 37 20 ZW 1013,5 20 0 0,0
17.02.2020 00:00:00 7,7 5,7 6,8 8,5 7,9 17 9 44 24 WZW 1012,8 20 0 1,0
16.02.2020 23:00:00 7,8 6,3 7,4 8,5 7,8 26 14 47 25 W 1012,3 3,4 0 1,6
16.02.2020 22:00:00 8,4 7,5 8,2 8,4 7,8 18 10 53 29 W 1011,0 4,3 0 3,2
16.02.2020 21:00:00 8,8 7,6 8,4 8,4 7,9 29 16 61 33 WNW 1009,8 3,6 0 4,9
16.02.2020 20:00:00 15,5 8,5 14,7 8,3 7,8 28 15 59 32 ZZW 1006,2 20 0 0,0
16.02.2020 19:00:00 15,6 8,6 13,8 8,2 7,8 31 17 67 36 Z 1005,9 20 0 0,0
16.02.2020 18:00:00 16,2 8,7 15,4 8,1 7,9 26 14 56 31 ZZW 1005,9 20 0 0,0
16.02.2020 17:00:00 16,3 8,8 15,7 8,0 7,8 24 13 59 32 ZZW 1006,2 20 37 0,0
16.02.2020 16:00:00 16,0 9,2 15,5 7,9 7,8 24 13 62 34 ZZW 1006,3 20 0 0,0
16.02.2020 15:00:00 15,8 8,8 15,8 7,8 7,9 30 16 73 39 ZZW 1006,5 20 41 0,0
16.02.2020 14:00:00 16,3 9,9 15,6 7,7 7,8 25 14 63 34 ZZW 1006,9 20 22 0,0
16.02.2020 13:00:00 15,0 9,1 13,8 7,6 7,8 22 12 53 29 ZZW 1008,2 20 7 0,0
16.02.2020 12:00:00 13,9 7,4 14,1 7,6 7,8 31 17 64 35 ZZW 1009,2 20 41 0,0
16.02.2020 11:00:00 13,4 7,2 12,0 7,5 7,8 30 16 59 32 ZZW 1009,3 20 4 0,2
16.02.2020 10:00:00 12,0 7,3 9,7 7,5 7,8 25 14 57 31 Z 1010,0 20 0 0,0
16.02.2020 09:00:00 11,3 7,8 9,4 7,5 7,8 23 12 50 27 Z 1010,7 20 0 0,0
16.02.2020 08:00:00 10,7 8,5 9,3 7,4 7,8 19 11 46 25 Z 1011,0 17 0 0,6
16.02.2020 07:00:00 10,4 8,8 9,3 7,4 7,8 21 11 50 27 Z 1011,8 10 0 2,3
16.02.2020 06:00:00 10,3 8,7 8,9 7,4 7,8 23 13 43 23 Z 1012,0 8 0 2,6
16.02.2020 05:00:00 9,9 8,2 8,8 7,4 7,8 18 10 41 22 Z 1012,2 7 0 2,4
16.02.2020 04:00:00 10,4 7,6 8,8 7,4 7,8 19 10 39 21 ZZW 1012,8 12 0 0,8
16.02.2020 03:00:00 11,4 6,7 10,6 7,4 7,8 19 10 47 25 Z 1013,1 20 0 0,0
16.02.2020 02:00:00 11,1 6,4 10,3 7,4 7,9 18 10 38 20 Z 1013,5 20 0 0,0
16.02.2020 01:00:00 11,0 6,5 10,4 7,4 7,8 21 12 41 22 Z 1014,1 20 0 0,0
16.02.2020 00:00:00 10,8 6,7 9,9 7,3 7,8 18 10 35 19 Z 1014,3 20 0 0,0
15.02.2020 23:00:00 10,4 6,7 9,4 7,3 7,8 19 10 35 19 Z 1015,5 20 0 0,0
15.02.2020 22:00:00 10,1 6,4 8,2 7,3 7,8 16 9 36 19 Z 1016,1 20 0 0,0
15.02.2020 21:00:00 10,8 5,5 10,1 7,3 7,8 17 9 41 22 Z 1016,4 20 0 0,0
15.02.2020 20:00:00 10,7 5,7 9,8 7,2 7,8 21 11 43 23 Z 1016,5 20 0 0,0
15.02.2020 19:00:00 10,4 6,2 8,9 7,2 7,8 18 10 33 18 Z 1016,8 20 0 0,0
15.02.2020 18:00:00 9,8 6,3 8,7 7,1 7,8 14 8 29 16 ZO 1016,7 20 0 0,0
15.02.2020 17:00:00 10,7 6,3 10,5 7,0 7,8 13 7 35 19 ZZO 1017,3 19 7 0,0
15.02.2020 16:00:00 11,3 6,8 11,7 6,9 7,8 17 9 33 18 Z 1017,9 20 3 0,0
15.02.2020 15:00:00 11,5 7,0 12,0 6,8 7,8 19 10 40 22 ZZW 1018,7 19 1 0,0
15.02.2020 14:00:00 11,2 6,5 11,8 6,6 7,8 24 13 44 24 ZZW 1019,2 19 16 0,0
15.02.2020 13:00:00 10,8 6,5 11,8 6,6 7,9 21 11 44 24 ZZW 1020,0 16 35 0,0
15.02.2020 12:00:00 10,9 6,4 12,8 6,5 7,9 21 12 37 20 Z 1020,9 19 60 0,0
15.02.2020 11:00:00 9,9 6,1 10,6 6,6 7,9 19 10 36 20 Z 1021,4 19 58 0,0
15.02.2020 10:00:00 8,2 5,3 6,2 6,5 7,8 9 5 20 11 ZZO 1022,2 19 13 0,0
15.02.2020 09:00:00 6,5 4,5 6,0 6,6 7,9 11 6 22 12 ZZO 1022,5 18 0 0,0
15.02.2020 08:00:00 6,2 4,5 3,4 6,6 7,8 10 6 19 10 Z 1022,9 19 0 0,0
15.02.2020 07:00:00 5,1 3,9 3,2 6,7 7,9 8 4 20 11 ZO 1022,6 19 0 0,0
15.02.2020 06:00:00 6,2 4,2 5,3 6,7 7,9 10 6 22 12 ZO 1022,6 20 0 0,0
15.02.2020 05:00:00 6,4 4,6 5,4 6,7 7,8 11 6 20 11 OZO 1023,1 20 0 0,0
15.02.2020 04:00:00 6,4 4,4 5,5 6,8 7,8 13 7 22 12 ZO 1023,3 20 0 0,0
15.02.2020 03:00:00 6,6 4,9 3,5 6,8 7,9 8 5 16 9 ZO 1023,9 20 0 0,0
15.02.2020 02:00:00 5,9 4,1 4,5 6,8 7,8 9 5 14 8 ZZO 1024,0 20 0 0,0
15.02.2020 01:00:00 7,0 4,6 5,5 6,9 7,9 3 2 17 9 ZO 1024,4 20 0 0,0
15.02.2020 00:00:00 7,3 5,3 6,2 6,9 7,8 9 5 17 9 O 1024,6 20 0 0,0
14.02.2020 23:00:00 7,5 5,5 6,2 6,9 7,9 9 5 13 7 ZO 1025,0 20 0 0,0
14.02.2020 22:00:00 7,8 5,1 5,9 6,9 7,9 7 4 13 7 ZO 1025,7 20 0 0,0
14.02.2020 21:00:00 7,3 4,1 5,9 6,9 7,9 6 3 14 7 Z 1025,4 20 0 0,0
14.02.2020 20:00:00 8,7 4,9 7,9 6,8 7,9 8 4 14 8 ZZW 1025,1 20 0 0,0
14.02.2020 19:00:00 9,1 4,9 8,5 6,8 7,9 8 4 19 10 ZZW 1024,7 20 0 0,0
14.02.2020 18:00:00 9,5 4,9 8,9 6,7 7,9 5 3 24 13 ZW 1024,5 20 0 0,0
14.02.2020 17:00:00 9,9 5,7 9,9 6,6 7,9 9 5 22 12 ZW 1023,5 20 0 0,0
14.02.2020 16:00:00 9,9 5,9 10,0 6,5 7,9 11 6 21 11 ZW 1023,4 20 0 0,0
14.02.2020 15:00:00 10,1 5,5 10,7 6,3 7,9 9 5 21 12 ZW 1023,3 20 0 0,0
14.02.2020 14:00:00 9,8 5,2 10,9 6,2 7,9 12 6 24 13 ZW 1023,4 20 9 0,0
14.02.2020 13:00:00 9,9 5,7 10,2 6,1 7,9 12 7 24 13 WZW 1023,3 20 7 0,0
14.02.2020 12:00:00 9,0 5,2 11,4 6,0 7,9 13 7 26 14 WZW 1023,5 20 46 0,0
14.02.2020 11:00:00 8,7 5,3 9,5 6,0 7,9 13 7 22 12 WZW 1022,9 20 44 0,0
14.02.2020 10:00:00 7,5 5,1 6,7 6,0 7,9 9 5 19 10 ZW 1022,4 20 13 0,0
14.02.2020 09:00:00 6,7 4,7 6,0 6,0 7,9 5 3 18 10 WZW 1021,3 20 0 0,0
14.02.2020 08:00:00 6,5 4,3 6,0 5,9 7,9 10 5 23 12 W 1020,2 20 0 0,0
14.02.2020 07:00:00 6,7 4,7 6,1 6,0 7,9 12 6 23 12 W 1018,9 20 0 0,0
14.02.2020 06:00:00 6,7 4,7 6,2 6,0 7,9 11 6 30 16 W 1017,5 20 0 0,0
14.02.2020 05:00:00 7,0 4,8 6,5 5,9 7,9 20 11 32 17 W 1016,1 20 0 0,0
14.02.2020 04:00:00 7,0 4,8 6,5 5,9 7,9 17 9 35 19 W 1015,4 20 0 0,0
14.02.2020 03:00:00 7,3 5,1 6,3 5,9 7,9 16 8 31 17 W 1014,4 20 0 0,0
14.02.2020 02:00:00 7,5 4,8 6,8 5,9 7,9 16 8 40 22 W 1013,3 20 0 0,0
14.02.2020 01:00:00 7,7 5,2 7,1 5,9 7,9 25 14 43 23 W 1011,5 19 0 0,0
14.02.2020 00:00:00 7,8 5,3 7,0 5,8 7,9 20 11 39 21 W 1010,1 20 0 0,2
13.02.2020 23:00:00 7,7 5,2 7,0 5,8 7,9 24 13 53 29 W 1008,5 20 0 0,0
13.02.2020 22:00:00 7,9 5,4 7,0 5,7 7,9 25 13 53 29 W 1006,4 20 0 0,0

tt = temperatuur
td = dauwpunt
tt 5cm = temperatuur 5cm
tt -20cm = temperatuur -20cm
tt -100cm = temperatuur -100cm
ff = windsnelheid
fx = windstoten
dd = windrichting
ppp = luchtdruk
vv = zicht
sd = Zonneschijnduur
rr = neerslag

Weerstations in de omgeving